sat.trackr.live / text

‹ back to catalog

FLOCK 4G-18

NORAD 62680 · 2025-009BZ

PAYLOAD ACTIVE UNKNOWN

§ Identity

Operator
Country
US
Launch date
2025-01-14
Launch site
AFWTR
Launch vehicle
Mass (kg)
RCS (m²)

Purposes: earth_obs

External: N2YO · Heavens-Above · Gunter

§ Orbital elements

Epoch: 2026-05-25T03:11:01.832640Z

Period
94.18 min
Inclination
97.4012°
Eccentricity
0.0006154
Mean motion
15.28966561 rev/d
Perigee alt
474.7 km
Apogee alt
483.1 km
Semi-major
6,857.0 km
B*
1.3249e-3
RAAN
226.9508°
Arg perigee
62.8139°
Mean anomaly
297.3727°
Rev number
13,301

§ Raw data

FLOCK 4G-181 62680U 25009BZ  26145.13266010  .00037362  00000+0  13249-2 0  99962 62680  97.4012 226.9508 0006154  62.8139 297.3727 15.28966561133018

JSON: /api/v1/satellites/62680 · /tle

For live sub-satellite position, see the globe view (requires WebGL).

§ Visibility from observer

Set your observer location to see the next 7 days of passes ≥ 10°. The values pass through the URL so the page stays shareable.

No JS? Fill the form by hand. The geolocation button needs JavaScript.